Location: Newark
(50.2919°N, 19.2528°E)
Time: 15:01:04
(UTC+00:00)

X-37B - Visible Passes

Search period start: 18 September 2020 00:00
Search period end: 28 September 2020 00:00
Orbit: 386 x 387 km, 45.0° (Epoch: 15 September)

Date Brightness Start Highest point End Pass type
(mag) Time Alt. Az. Time Alt. Az. Time Alt. Az.
18 Sep 3.2 01:52:47 15° ESE 01:52:47 15° ESE 01:53:40 10° ESE visible
18 Sep 1.7 03:25:04 15° WSW 03:27:12 31° S 03:30:04 10° ESE visible
19 Sep 1.8 02:29:10 30° SSE 02:29:10 30° SSE 02:31:38 10° ESE visible
20 Sep 1.8 03:05:36 24° SW 03:06:32 28° S 03:09:19 10° SE visible
21 Sep 2.8 02:09:48 19° SE 02:09:48 19° SE 02:10:58 10° ESE visible
21 Sep 2.4 03:42:05 11° WSW 03:44:12 18° SSW 03:46:28 10° SSE visible
22 Sep 2.2 02:46:23 22° S 02:46:23 22° S 02:48:26 10° SE visible
23 Sep 2.7 03:23:04 13° SW 03:23:25 13° SSW 03:24:57 10° S visible
